Location: Nitra
(0.0000°N, 18.0833°E)
Time: 03:55:13
(UTC+02:00)

Oscar 19 - Pass Details

Date: 19 June 2023
Orbit: 773 x 788 km, 98.9° (Epoch: 25 September)

Event Time Altitude Azimuth Distance (km) Brightness Sun altitude
Rises 05:42:44 0° 340° (NNW) 3,233 13.9 -15.2°
Reaches altitude 10° 05:46:01 10° 317° (NW) 2,309 12.9 -14.4°
Maximum altitude 05:48:49 15° 283° (WNW) 1,988 12.3 -13.8°
Enters shadow 05:49:18 15° 277° (W) 1,999 12.2 -13.7°
